Time,TemperatureF,DewpointF,PressureIn,WindDirection,WindDirectionDegrees,WindSpeedMPH,WindSpeedGustMPH,Humidity,HourlyPrecipIn,Conditions,Clouds,dailyrainin,SoftwareType,DateUTC
2013-03-07 00:00:00,32.9,22.1,30.14,NNW,338,0.4,0.4,64,0.00,,SKC,0.00,VWS V14.01,2013-03-07 05:00:00,
2013-03-07 00:15:00,32.9,22.1,30.14,NNW,338,0.0,0.8,64,0.00,,SKC,0.00,VWS V14.01,2013-03-07 05:15:00,
2013-03-07 00:30:00,32.9,22.1,30.13,NNW,338,0.0,0.0,64,0.00,,SKC,0.00,VWS V14.01,2013-03-07 05:30:00,
2013-03-07 00:45:00,32.9,22.4,30.14,NNW,338,0.0,0.0,65,0.00,,SKC,0.00,VWS V14.01,2013-03-07 05:45:00,
2013-03-07 01:00:00,32.7,22.2,30.14,NNW,338,0.0,0.0,65,0.00,,SKC,0.00,VWS V14.01,2013-03-07 06:00:00,
2013-03-07 01:15:00,32.7,22.2,30.14,NNW,338,0.0,0.0,65,0.00,,SKC,0.00,VWS V14.01,2013-03-07 06:15:00,
2013-03-07 01:30:00,32.5,22.1,30.14,NNW,338,0.0,0.0,65,0.00,,SKC,0.00,VWS V14.01,2013-03-07 06:30:00,
2013-03-07 01:45:00,32.5,22.4,30.14,NNW,338,0.0,0.0,66,0.00,,SKC,0.00,VWS V14.01,2013-03-07 06:45:00,
2013-03-07 02:00:00,32.5,22.4,30.14,NNW,338,0.0,0.0,66,0.00,,SKC,0.00,VWS V14.01,2013-03-07 07:00:00,
2013-03-07 02:15:00,32.3,22.2,30.14,NNW,338,0.0,0.0,66,0.00,,SKC,0.00,VWS V14.01,2013-03-07 07:15:00,
2013-03-07 02:30:00,32.3,22.2,30.14,NNW,338,0.0,0.0,66,0.00,,SKC,0.00,VWS V14.01,2013-03-07 07:30:00,
2013-03-07 03:00:00,32.1,22.0,30.14,NNW,338,0.0,0.0,66,0.00,,SKC,0.00,VWS V14.01,2013-03-07 08:00:00,
2013-03-07 03:15:00,32.1,22.0,30.14,NNW,338,0.0,0.0,66,0.00,,SKC,0.00,VWS V14.01,2013-03-07 08:15:00,
2013-03-07 03:30:00,32.1,22.0,30.14,NNW,338,0.0,0.0,66,0.00,,SKC,0.00,VWS V14.01,2013-03-07 08:30:00,
2013-03-07 03:45:00,32.0,22.3,30.15,NNW,338,0.0,0.0,67,0.00,,SKC,0.00,VWS V14.01,2013-03-07 08:45:00,
2013-03-07 04:00:00,31.8,22.1,30.15,NNW,338,0.0,0.0,67,0.00,,SKC,0.00,VWS V14.01,2013-03-07 09:00:00,
2013-03-07 04:15:00,31.8,22.5,30.15,NNW,338,0.0,0.0,68,0.00,,SKC,0.00,VWS V14.01,2013-03-07 09:15:00,
2013-03-07 04:30:00,31.8,22.5,30.16,NNW,338,0.0,0.0,68,0.00,,SKC,0.00,VWS V14.01,2013-03-07 09:30:00,
2013-03-07 04:45:00,31.6,22.3,30.16,NNW,338,0.0,0.0,68,0.00,,SKC,0.00,VWS V14.01,2013-03-07 09:45:00,
2013-03-07 05:00:00,31.4,22.1,30.16,NNW,338,0.0,1.3,68,0.00,,SKC,0.00,VWS V14.01,2013-03-07 10:00:00,
2013-03-07 05:15:00,31.4,22.1,30.16,NNW,338,0.0,0.6,68,0.00,,SKC,0.00,VWS V14.01,2013-03-07 10:15:00,
2013-03-07 05:30:00,31.4,22.1,30.17,NNW,338,0.0,0.0,68,0.00,,SKC,0.00,VWS V14.01,2013-03-07 10:30:00,
2013-03-07 05:45:00,31.4,22.4,30.17,NNW,338,0.0,0.0,69,0.00,,SKC,0.00,VWS V14.01,2013-03-07 10:45:00,
2013-03-07 06:00:00,31.4,22.4,30.18,NNW,338,0.0,0.0,69,0.00,,SKC,0.00,VWS V14.01,2013-03-07 11:00:00,
2013-03-07 06:15:00,31.6,22.6,30.18,NNW,338,0.0,0.0,69,0.00,,SKC,0.00,VWS V14.01,2013-03-07 11:15:00,
2013-03-07 06:30:00,31.8,22.8,30.19,NNE,22,0.0,0.0,69,0.00,,SKC,0.00,VWS V14.01,2013-03-07 11:30:00,
2013-03-07 06:45:00,31.6,22.6,30.19,NNW,338,0.0,0.0,69,0.00,,SKC,0.00,VWS V14.01,2013-03-07 11:45:00,
2013-03-07 07:00:00,31.6,22.6,30.19,NW,315,1.3,1.3,69,0.00,,SKC,0.00,VWS V14.01,2013-03-07 12:00:00,
2013-03-07 07:15:00,31.2,22.6,30.19,NNW,338,0.0,1.3,70,0.00,,SKC,0.00,VWS V14.01,2013-03-07 12:15:00,
2013-03-07 07:30:00,31.2,22.6,30.20,NNW,338,0.0,1.1,70,0.00,,SKC,0.00,VWS V14.01,2013-03-07 12:30:00,
2013-03-07 07:45:00,31.4,22.8,30.20,North,0,0.0,0.0,70,0.00,,SKC,0.00,VWS V14.01,2013-03-07 12:45:00,
2013-03-07 08:00:00,32.0,23.7,30.20,NNW,338,0.6,0.6,71,0.00,,SKC,0.00,VWS V14.01,2013-03-07 13:00:00,
2013-03-07 08:15:00,32.7,24.7,30.21,North,0,2.2,2.2,72,0.00,,SKC,0.00,VWS V14.01,2013-03-07 13:15:00,
2013-03-07 08:30:00,32.9,24.5,30.22,NNE,22,0.0,2.2,71,0.00,,SKC,0.00,VWS V14.01,2013-03-07 13:30:00,
2013-03-07 08:45:00,33.2,24.8,30.22,North,0,0.0,0.8,71,0.00,,SKC,0.00,VWS V14.01,2013-03-07 13:45:00,
2013-03-07 09:00:00,33.2,24.8,30.22,NNW,338,0.0,2.2,71,0.00,,SKC,0.00,VWS V14.01,2013-03-07 14:00:00,
2013-03-07 09:15:00,33.2,24.8,30.22,North,0,0.6,2.4,71,0.00,,SKC,0.00,VWS V14.01,2013-03-07 14:15:00,
2013-03-07 09:30:00,33.2,24.8,30.24,North,0,1.1,1.1,71,0.00,,SKC,0.00,VWS V14.01,2013-03-07 14:30:00,
2013-03-07 09:45:00,33.4,24.7,30.24,NNW,338,0.0,1.1,70,0.00,,SKC,0.00,VWS V14.01,2013-03-07 14:45:00,
2013-03-07 10:00:00,33.9,25.2,30.24,NNW,338,2.2,2.2,70,0.00,,SKC,0.00,VWS V14.01,2013-03-07 15:00:00,
2013-03-07 10:15:00,34.1,25.0,30.24,North,0,1.5,6.4,69,0.00,,SKC,0.00,VWS V14.01,2013-03-07 15:15:00,
2013-03-07 10:30:00,34.3,24.9,30.24,North,0,0.6,3.3,68,0.00,,SKC,0.00,VWS V14.01,2013-03-07 15:30:00,
2013-03-07 10:45:00,34.1,24.3,30.25,NNW,338,2.9,4.0,67,0.00,,SKC,0.00,VWS V14.01,2013-03-07 15:45:00,
2013-03-07 11:00:00,34.3,24.1,30.25,NNE,22,0.0,6.0,66,0.00,,SKC,0.00,VWS V14.01,2013-03-07 16:00:00,
2013-03-07 11:15:00,34.7,24.1,30.25,North,0,3.8,4.0,65,0.00,,SKC,0.00,VWS V14.01,2013-03-07 16:15:00,
2013-03-07 11:30:00,34.8,23.9,30.25,North,0,3.1,3.8,64,0.00,,SKC,0.00,VWS V14.01,2013-03-07 16:30:00,
2013-03-07 11:45:00,35.6,23.9,30.25,NE,45,4.0,4.0,62,0.00,,SKC,0.00,VWS V14.01,2013-03-07 16:45:00,
2013-03-07 12:00:00,36.8,24.2,30.25,NNE,22,0.0,4.2,60,0.00,,SKC,0.00,VWS V14.01,2013-03-07 17:00:00,
2013-03-07 12:15:00,37.0,23.2,30.26,NE,45,2.4,5.3,57,0.00,,SKC,0.00,VWS V14.01,2013-03-07 17:15:00,
2013-03-07 12:30:00,36.5,22.3,30.25,NNW,338,1.3,3.1,56,0.00,,SKC,0.00,VWS V14.01,2013-03-07 17:30:00,
2013-03-07 12:45:00,37.0,22.4,30.25,North,0,0.8,5.5,55,0.00,,SKC,0.00,VWS V14.01,2013-03-07 17:45:00,
2013-03-07 13:00:00,37.0,21.9,30.25,North,0,1.5,4.2,54,0.00,,SKC,0.00,VWS V14.01,2013-03-07 18:00:00,
2013-03-07 13:15:00,36.5,21.0,30.25,North,0,0.6,5.1,53,0.00,,SKC,0.00,VWS V14.01,2013-03-07 18:15:00,
2013-03-07 13:30:00,36.1,20.6,30.25,North,0,0.0,4.2,53,0.00,,SKC,0.00,VWS V14.01,2013-03-07 18:30:00,
2013-03-07 13:45:00,35.4,20.0,30.25,North,0,0.0,5.5,53,0.00,,SKC,0.00,VWS V14.01,2013-03-07 18:45:00,
2013-03-07 14:00:00,35.2,19.4,30.25,North,0,2.0,2.0,52,0.00,,SKC,0.00,VWS V14.01,2013-03-07 19:00:00,
2013-03-07 14:15:00,35.2,19.8,30.25,NNE,22,0.6,2.0,53,0.00,,SKC,0.00,VWS V14.01,2013-03-07 19:15:00,
2013-03-07 14:30:00,35.2,19.4,30.25,North,0,2.0,2.0,52,0.00,,SKC,0.00,VWS V14.01,2013-03-07 19:30:00,
2013-03-07 14:45:00,35.6,19.3,30.25,North,0,0.0,2.0,51,0.00,,SKC,0.00,VWS V14.01,2013-03-07 19:45:00,
2013-03-07 15:00:00,34.7,18.4,30.26,North,0,1.7,1.7,51,0.00,,SKC,0.00,VWS V14.01,2013-03-07 20:00:00,
2013-03-07 15:15:00,34.3,18.1,30.26,NE,45,0.4,1.7,51,0.00,,SKC,0.00,VWS V14.01,2013-03-07 20:15:00,
2013-03-07 15:30:00,34.3,18.1,30.26,NNE,22,1.5,3.3,51,0.00,,SKC,0.00,VWS V14.01,2013-03-07 20:30:00,
2013-03-07 15:45:00,34.3,18.1,30.26,NE,45,0.0,1.5,51,0.00,,SKC,0.00,VWS V14.01,2013-03-07 20:45:00,
2013-03-07 16:00:00,34.3,18.1,30.26,NNE,22,2.2,2.2,51,0.00,,SKC,0.00,VWS V14.01,2013-03-07 21:00:00,
2013-03-07 16:15:00,33.9,17.2,30.27,North,0,1.1,2.2,50,0.00,,SKC,0.00,VWS V14.01,2013-03-07 21:15:00,
2013-03-07 16:30:00,33.9,17.2,30.27,NNW,338,0.0,1.1,50,0.00,,SKC,0.00,VWS V14.01,2013-03-07 21:30:00,
2013-03-07 16:45:00,33.4,16.8,30.28,NNE,22,0.0,1.5,50,0.00,,SKC,0.00,VWS V14.01,2013-03-07 21:45:00,
2013-03-07 17:00:00,33.4,16.8,30.27,NW,315,2.6,2.6,50,0.00,,SKC,0.00,VWS V14.01,2013-03-07 22:00:00,
2013-03-07 17:15:00,33.2,16.1,30.27,North,0,0.0,2.6,49,0.00,,SKC,0.00,VWS V14.01,2013-03-07 22:15:00,
2013-03-07 17:30:00,33.0,15.5,30.28,NNE,22,1.3,2.6,48,0.00,,SKC,0.00,VWS V14.01,2013-03-07 22:30:00,
2013-03-07 18:00:00,32.7,14.2,30.28,NNE,22,0.0,4.0,46,0.00,,SKC,0.00,VWS V14.01,2013-03-07 23:00:00,
2013-03-07 18:15:00,32.5,13.5,30.29,NE,45,0.0,2.4,45,0.00,,SKC,0.00,VWS V14.01,2013-03-07 23:15:00,
2013-03-07 18:30:00,32.1,13.2,30.30,NNE,22,0.4,2.6,45,0.00,,SKC,0.00,VWS V14.01,2013-03-07 23:30:00,
2013-03-07 18:45:00,31.8,12.9,30.30,NNE,22,0.0,1.1,45,0.00,,SKC,0.00,VWS V14.01,2013-03-07 23:45:00,
2013-03-07 19:00:00,31.4,12.5,30.31,NNE,22,0.8,2.2,45,0.00,,SKC,0.00,VWS V14.01,2013-03-08 00:00:00,
2013-03-07 19:15:00,31.1,11.8,30.31,NNE,22,0.0,0.8,44,0.00,,SKC,0.00,VWS V14.01,2013-03-08 00:15:00,
2013-03-07 19:30:00,30.7,11.4,30.32,NNE,22,0.0,0.0,44,0.00,,SKC,0.00,VWS V14.01,2013-03-08 00:30:00,
2013-03-07 19:45:00,30.5,11.7,30.32,NNE,22,0.0,0.0,45,0.00,,SKC,0.00,VWS V14.01,2013-03-08 00:45:00,
2013-03-07 20:00:00,30.3,11.5,30.32,NNE,22,0.0,0.0,45,0.00,,SKC,0.00,VWS V14.01,2013-03-08 01:00:00,
2013-03-07 20:15:00,30.3,12.0,30.32,NNE,22,0.0,0.0,46,0.00,,SKC,0.00,VWS V14.01,2013-03-08 01:15:00,
2013-03-07 20:30:00,29.8,11.6,30.32,NNE,22,0.0,0.0,46,0.00,,SKC,0.00,VWS V14.01,2013-03-08 01:30:00,
2013-03-07 20:45:00,29.4,11.2,30.32,NNE,22,0.0,0.0,46,0.00,,SKC,0.00,VWS V14.01,2013-03-08 01:45:00,
2013-03-07 21:00:00,29.3,11.1,30.32,NNE,22,0.0,0.0,46,0.00,,SKC,0.00,VWS V14.01,2013-03-08 02:00:00,
2013-03-07 21:15:00,29.1,11.4,30.33,NNE,22,0.0,0.0,47,0.00,,SKC,0.00,VWS V14.01,2013-03-08 02:15:00,
2013-03-07 21:30:00,28.7,11.0,30.32,NNE,22,0.0,0.0,47,0.00,,SKC,0.00,VWS V14.01,2013-03-08 02:30:00,
2013-03-07 21:45:00,28.5,11.3,30.32,NNE,22,0.0,0.0,48,0.00,,SKC,0.00,VWS V14.01,2013-03-08 02:45:00,
2013-03-07 22:00:00,27.8,11.1,30.32,NNE,22,0.0,0.0,49,0.00,,SKC,0.00,VWS V14.01,2013-03-08 03:00:00,
2013-03-07 22:15:00,26.9,10.8,30.32,NNE,22,0.0,0.0,50,0.00,,SKC,0.00,VWS V14.01,2013-03-08 03:15:00,
2013-03-07 22:30:00,26.2,10.1,30.32,NNE,22,0.0,0.0,50,0.00,,SKC,0.00,VWS V14.01,2013-03-08 03:30:00,
2013-03-07 22:45:00,25.7,10.1,30.32,NNE,22,0.0,0.0,51,0.00,,SKC,0.00,VWS V14.01,2013-03-08 03:45:00,
2013-03-07 23:00:00,25.1,10.0,30.32,NNE,22,0.0,0.0,52,0.00,,SKC,0.00,VWS V14.01,2013-03-08 04:00:00,
2013-03-07 23:15:00,24.0,9.4,30.32,NNE,22,0.0,0.0,53,0.00,,SKC,0.00,VWS V14.01,2013-03-08 04:15:00,
2013-03-07 23:30:00,23.5,9.7,30.32,NNE,22,0.0,0.0,55,0.00,,SKC,0.00,VWS V14.01,2013-03-08 04:30:00,
2013-03-07 23:45:00,23.1,9.4,30.32,NNE,22,0.0,0.0,55,0.00,,SKC,0.00,VWS V14.01,2013-03-08 04:45:00,